Back to catalog

STARLINK-6360

AliveCommunicationsVLEO
NORAD 57235·PAYLOAD·🇺🇸 United States

Launched Jul 7, 2023 from Vandenberg Space Force Base

Loading…

Next Passes (next 24 hours)

TLE

FreshSource: CelesTrak SupGP

Epoch: Sep 14, 2026, 20:51 UTC

1 57235C 23094T   26257.86923611  .00061358  00000+0  22221-2 0  2578
2 57235  43.0018  42.2995 0001328 270.6132 261.6305 15.27552176    11

Track STARLINK-6360 in real time with AllMySat

Download on the App Store